Location: Dammartin
(48.9032°N, 1.6195°E)
Time: 13:44:49
(UTC+00:00)

YUBILEINY - Pass Details

Date: 15 December 2023
Orbit: 1479 x 1508 km, 82.5° (Epoch: 02 March)

Event Time Altitude Azimuth Distance (km) Brightness Sun altitude
Rises 20:57:13 0° 344° (NNW) 4,622 ? -47.8°
Reaches altitude 10° 21:00:44 10° 332° (NNW) 3,635 ? -48.3°
Maximum altitude 21:07:16 25° 283° (WNW) 2,656 ? -49.3°
Drops below altitude 10° 21:13:47 10° 233° (SW) 3,614 ? -50.3°
Sets 21:17:18 0° 221° (SW) 4,589 ? -50.8°
